When you browse on this site, cookies collect data to enhance your experience and personalize the content and advertising you see.
Visit our Privacy Policy to learn more. By continuing to use the site, you agree to this use of cookies and data.

Hourly Weather Diapaga

Today, 18 September, Friday

Time Temperature Precipitation Wind Pressure Humidity
00:00 +25°C° 0 mm 1 mps 735 mmHg 92%
01:00 +25°C° 0 mm 1 mps 735 mmHg 93%
02:00 +25°C° 0 mm 1 mps 735 mmHg 93%
03:00 +24°C° 0 mm 1 mps 735 mmHg 94%
04:00 +25°C° 0 mm 1 mps 735 mmHg 94%
05:00 +25°C° 0 mm 1 mps 736 mmHg 94%
06:00 +25°C° 0 mm 1 mps 737 mmHg 94%
07:00 +26°C° 0 mm 1 mps 737 mmHg 89%
08:00 +27°C° 0 mm 1 mps 737 mmHg 85%
09:00 +28°C° 0 mm 1 mps 738 mmHg 81%
10:00 +30°C° 0 mm 1 mps 737 mmHg 74%
11:00 +31°C° 0 mm 1 mps 737 mmHg 67%
12:00 +32°C° 0 mm 1 mps 737 mmHg 60%
13:00 +32°C° 0 mm 1 mps 736 mmHg 61%
14:00 +32°C° 0 mm 1 mps 736 mmHg 61%
15:00 +32°C° 0 mm 2 mps 735 mmHg 62%
16:00 +31°C° 0 mm 1 mps 735 mmHg 66%
17:00 +30°C° 0 mm 1 mps 735 mmHg 70%
18:00 +29°C° 0 mm 1 mps 735 mmHg 74%
19:00 +29°C° 0 mm 1 mps 735 mmHg 75%
20:00 +28°C° 0 mm 1 mps 736 mmHg 76%
21:00 +28°C° 0 mm 1 mps 736 mmHg 77%
22:00 +27°C° 0 mm 1 mps 736 mmHg 78%
23:00 +27°C° 0 mm 1 mps 736 mmHg 79%

Tomorrow, 19 September, Saturday

Time Temperature Precipitation Wind Pressure Humidity
00:00 +27°C° 0 mm 1 mps 736 mmHg 80%
01:00 +26°C° 0.5 mm 1 mps 736 mmHg 84%
02:00 +26°C° 0.5 mm 1 mps 735 mmHg 87%
03:00 +25°C° 0.5 mm 1 mps 735 mmHg 90%
04:00 +25°C° 0.1 mm 2 mps 735 mmHg 91%
05:00 +25°C° 0.1 mm 2 mps 735 mmHg 92%
06:00 +25°C° 0.1 mm 3 mps 735 mmHg 93%
07:00 +26°C° 0 mm 3 mps 735 mmHg 88%
08:00 +28°C° 0 mm 3 mps 736 mmHg 82%
09:00 +30°C° 0 mm 3 mps 736 mmHg 77%
10:00 +31°C° 0 mm 3 mps 736 mmHg 71%
11:00 +34°C° 0 mm 3 mps 735 mmHg 65%
12:00 +35°C° 0 mm 3 mps 735 mmHg 59%
13:00 +36°C° 0 mm 3 mps 734 mmHg 56%
14:00 +36°C° 0 mm 3 mps 733 mmHg 53%
15:00 +37°C° 0 mm 2 mps 733 mmHg 51%
16:00 +35°C° 0 mm 2 mps 733 mmHg 56%
17:00 +34°C° 0 mm 2 mps 732 mmHg 61%
18:00 +31°C° 0 mm 2 mps 732 mmHg 67%
19:00 +30°C° 0 mm 3 mps 733 mmHg 71%
20:00 +29°C° 0 mm 3 mps 733 mmHg 75%
21:00 +29°C° 0 mm 3 mps 734 mmHg 80%
22:00 +28°C° 0 mm 3 mps 734 mmHg 81%
23:00 +28°C° 0 mm 3 mps 734 mmHg 82%

Day after tomorrow, 20 September, Sunday

Time Temperature Precipitation Wind Pressure Humidity
00:00 +27°C° 0 mm 3 mps 734 mmHg 84%
01:00 +27°C° 0 mm 4 mps 734 mmHg 85%
02:00 +27°C° 0 mm 5 mps 733 mmHg 86%
03:00 +26°C° 0 mm 5 mps 733 mmHg 87%
04:00 +26°C° 0 mm 5 mps 734 mmHg 87%
05:00 +26°C° 0 mm 5 mps 734 mmHg 87%
06:00 +26°C° 0 mm 5 mps 734 mmHg 87%
07:00 +27°C° 0 mm 5 mps 735 mmHg 83%
08:00 +29°C° 0 mm 5 mps 735 mmHg 79%
09:00 +30°C° 0 mm 5 mps 735 mmHg 75%
10:00 +32°C° 0 mm 5 mps 735 mmHg 72%
11:00 +33°C° 0 mm 5 mps 735 mmHg 69%
12:00 +34°C° 0 mm 5 mps 734 mmHg 65%
13:00 +34°C° 0 mm 5 mps 734 mmHg 65%
14:00 +34°C° 0 mm 4 mps 733 mmHg 65%
15:00 +34°C° 0 mm 4 mps 733 mmHg 65%
16:00 +33°C° 0 mm 4 mps 733 mmHg 70%
17:00 +32°C° 0 mm 4 mps 733 mmHg 75%
18:00 +30°C° 0 mm 3 mps 733 mmHg 80%
19:00 +29°C° 0 mm 4 mps 733 mmHg 81%
20:00 +29°C° 0 mm 4 mps 734 mmHg 82%
21:00 +28°C° 0 mm 4 mps 734 mmHg 83%
22:00 +27°C° 0.3 mm 4 mps 735 mmHg 86%
23:00 +27°C° 0.3 mm 3 mps 735 mmHg 89%

21 September, Monday

Time Temperature Precipitation Wind Pressure Humidity
00:00 +26°C° 0.3 mm 2 mps 735 mmHg 92%
01:00 +26°C° 1.5 mm 2 mps 735 mmHg 94%
02:00 +25°C° 1.5 mm 2 mps 735 mmHg 95%
03:00 +25°C° 1.5 mm 2 mps 735 mmHg 97%
04:00 +25°C° 0.1 mm 2 mps 735 mmHg 97%
05:00 +25°C° 0.1 mm 2 mps 735 mmHg 96%
06:00 +25°C° 0.1 mm 2 mps 735 mmHg 96%
07:00 +26°C° 0 mm 3 mps 736 mmHg 91%
08:00 +27°C° 0 mm 5 mps 736 mmHg 87%
09:00 +28°C° 0 mm 6 mps 736 mmHg 82%
10:00 +29°C° 0 mm 5 mps 736 mmHg 78%
11:00 +30°C° 0 mm 5 mps 736 mmHg 74%
12:00 +32°C° 0 mm 5 mps 735 mmHg 69%
13:00 +32°C° 0 mm 4 mps 735 mmHg 70%
14:00 +32°C° 0 mm 4 mps 734 mmHg 70%
15:00 +32°C° 0 mm 4 mps 734 mmHg 71%
16:00 +30°C° 0 mm 3 mps 734 mmHg 74%
17:00 +29°C° 0 mm 2 mps 734 mmHg 78%
18:00 +28°C° 0 mm 2 mps 734 mmHg 82%
19:00 +28°C° 0 mm 2 mps 734 mmHg 84%
20:00 +28°C° 0 mm 2 mps 735 mmHg 85%
21:00 +27°C° 0 mm 2 mps 735 mmHg 87%
22:00 +27°C° 0.1 mm 2 mps 735 mmHg 89%
23:00 +26°C° 0.1 mm 2 mps 735 mmHg 91%

22 September, Tuesday

Time Temperature Precipitation Wind Pressure Humidity
00:00 +26°C° 0.1 mm 2 mps 735 mmHg 93%
01:00 +26°C° 0.7 mm 2 mps 735 mmHg 94%
02:00 +25°C° 0.7 mm 2 mps 735 mmHg 94%
03:00 +25°C° 0.7 mm 2 mps 734 mmHg 95%
04:00 +25°C° 0.5 mm 2 mps 735 mmHg 95%
05:00 +25°C° 0.5 mm 2 mps 735 mmHg 95%
06:00 +25°C° 0.5 mm 2 mps 735 mmHg 95%
07:00 +26°C° 0.2 mm 2 mps 736 mmHg 91%
08:00 +27°C° 0.2 mm 2 mps 736 mmHg 87%
09:00 +28°C° 0.2 mm 2 mps 736 mmHg 83%
10:00 +30°C° 0 mm 2 mps 736 mmHg 75%
11:00 +31°C° 0 mm 2 mps 736 mmHg 67%
12:00 +34°C° 0 mm 2 mps 735 mmHg 58%
13:00 +34°C° 0 mm 2 mps 734 mmHg 56%
14:00 +34°C° 0 mm 1 mps 734 mmHg 53%
15:00 +34°C° 0 mm 1 mps 733 mmHg 51%
16:00 +33°C° 0 mm 1 mps 733 mmHg 55%
17:00 +31°C° 0 mm 1 mps 734 mmHg 60%
18:00 +28°C° 0 mm 0 mps 734 mmHg 65%
19:00 +29°C° 0.1 mm 1 mps 734 mmHg 69%
20:00 +28°C° 0.1 mm 1 mps 735 mmHg 72%
21:00 +28°C° 0.1 mm 2 mps 736 mmHg 76%
22:00 +27°C° 0.2 mm 1 mps 736 mmHg 79%
23:00 +26°C° 0.2 mm 1 mps 735 mmHg 83%

23 September, Wednesday

Time Temperature Precipitation Wind Pressure Humidity
00:00 +26°C° 0.2 mm 1 mps 735 mmHg 86%
01:00 +26°C° 0.2 mm 2 mps 735 mmHg 88%
02:00 +26°C° 0.2 mm 2 mps 735 mmHg 90%
03:00 +25°C° 0.2 mm 2 mps 735 mmHg 92%
04:00 +25°C° 0 mm 2 mps 735 mmHg 93%
05:00 +25°C° 0 mm 2 mps 735 mmHg 93%
06:00 +25°C° 0 mm 2 mps 735 mmHg 94%
07:00 +26°C° 0 mm 2 mps 736 mmHg 89%
08:00 +27°C° 0 mm 2 mps 736 mmHg 84%
09:00 +29°C° 0 mm 2 mps 737 mmHg 78%
10:00 +30°C° 0 mm 3 mps 736 mmHg 72%
11:00 +31°C° 0 mm 3 mps 736 mmHg 66%
12:00 +34°C° 0 mm 3 mps 735 mmHg 60%
13:00 +34°C° 0 mm 3 mps 735 mmHg 60%
14:00 +34°C° 0 mm 3 mps 734 mmHg 60%
15:00 +34°C° 0 mm 3 mps 734 mmHg 59%
16:00 +32°C° 0 mm 2 mps 734 mmHg 65%
17:00 +30°C° 0 mm 2 mps 734 mmHg 70%
18:00 +29°C° 0 mm 2 mps 734 mmHg 75%
19:00 +29°C° 0 mm 2 mps 735 mmHg 78%
20:00 +28°C° 0 mm 2 mps 735 mmHg 80%
21:00 +27°C° 0 mm 2 mps 736 mmHg 83%
22:00 +27°C° 0 mm 3 mps 736 mmHg 84%
23:00 +26°C° 0 mm 3 mps 736 mmHg 85%
Show more